Weather History for KCHS - January, 2013

Change the Weather History Date:

Friday, January 4, 2013

  Actual Average Record
Temperature  
Mean Temperature 45 °F 48 °F  
Max Temperature 57 °F 59 °F 77 °F (1950)
Min Temperature 32 °F 37 °F 19 °F (2001)
Degree Days  
Heating Degree Days 20 17  
Month to date heating degree days 51 68  
Since 1 July heating degree days 749 806  
Cooling Degree Days 0 0  
Month to date cooling degree days 0 0  
Year to date cooling degree days 0 0  
Moisture  
Dew Point 35 °F    
Average Humidity 68    
Maximum Humidity 100    
Minimum Humidity 35    
Precipitation  
Precipitation 0.00 in 0.11 in 0.75 in (2007)
Month to date precipitation 0.13 0.45  
Year to date precipitation 0.13 0.45  
Snow  
Snow 0.00 in 0.00 in - ()
Month to date snowfall 0.0  
Since 1 July snowfall 0.0 0.3  
Snow Depth 0.00 in    
Sea Level Pressure  
Sea Level Pressure 30.31 in    
Wind  
Wind Speed 4 mph (North)    
Max Wind Speed 10 mph    
Max Gust Speed 14 mph    
Visibility 7 miles    
Events Fog    
T = Trace of Precipitation, MM = Missing Value Source: NWS Daily Summary

Daily Weather History Graph

Daily Weather History Graph

Search for Another Location

Airport or City:

Trip Planner

Search our weather history database for the weather conditions in past years. The results will help you decide how hot, cold, wet, or windy it might be!

Date:

Astronomy

Jan. 04, 2013 Rise Set
Actual Time 7:23 AM EST 5:27 PM EST
Civil Twilight 6:56 AM EST 5:54 PM EST
Nautical Twilight 6:25 AM EST 6:25 PM EST
Astronomical Twilight 5:55 AM EST 6:55 PM EST
Moon No Moon Rise 11:29 AM EST (1/4)
Length of Visible Light 10h 58m
Length of Day
10h 03m
Waning Gibbous, 55% of the Moon is Illuminated
Jan 4
Waning Gibbous
Jan 4
Last Quarter
Jan 11
New
Jan 18
First Quarter
Jan 26
Full

Hourly Weather History & Observations

Time (EST) Temp. Windchill Dew Point Humidity Pressure Visibility Wind Dir Wind Speed Gust Speed Precip Events Conditions
12:56 AM 43.0 °F 38.2 °F 39.9 °F 89% 30.26 in 10.0 mi North 8.1 mph - N/A   Overcast
1:27 AM 42.8 °F 38.6 °F 39.2 °F 87% 30.26 in 8.0 mi North 6.9 mph - N/A   Scattered Clouds
1:56 AM 41.0 °F 36.4 °F 39.0 °F 93% 30.28 in 6.0 mi North 6.9 mph - N/A   Partly Cloudy
2:56 AM 39.0 °F 34.8 °F 37.9 °F 96% 30.30 in 5.0 mi North 5.8 mph - N/A   Clear
3:56 AM 37.9 °F - 37.9 °F 100% 30.30 in 3.0 mi Calm Calm - N/A   Clear
4:56 AM 36.0 °F 32.1 °F 36.0 °F 100% 30.29 in 1.0 mi North 4.6 mph - N/A   Clear
5:04 AM 37.4 °F 33.8 °F 35.6 °F 93% 30.28 in 0.5 mi NNE 4.6 mph - N/A Fog Fog
5:56 AM 36.0 °F 31.1 °F 35.1 °F 97% 30.30 in 2.0 mi North 5.8 mph - N/A   Partly Cloudy
6:12 AM 35.6 °F 31.7 °F 35.6 °F 100% 30.29 in 3.0 mi North 4.6 mph - N/A   Partly Cloudy
6:56 AM 36.0 °F 31.1 °F 35.1 °F 97% 30.31 in 3.0 mi North 5.8 mph - N/A   Scattered Clouds
7:23 AM 35.6 °F 29.9 °F 33.8 °F 93% 30.31 in 1.0 mi North 6.9 mph - N/A   Mostly Cloudy
7:56 AM 35.1 °F 31.0 °F 35.1 °F 100% 30.34 in 1.0 mi North 4.6 mph - N/A   Mostly Cloudy
8:11 AM 35.6 °F 32.8 °F 35.6 °F 100% 30.35 in 2.0 mi NNE 3.5 mph - N/A   Mostly Cloudy
8:26 AM 37.4 °F - 35.6 °F 93% 30.35 in 4.0 mi Calm Calm - N/A   Scattered Clouds
8:56 AM 39.0 °F 35.7 °F 37.0 °F 93% 30.34 in 7.0 mi North 4.6 mph - N/A   Scattered Clouds
9:56 AM 45.0 °F 41.8 °F 39.0 °F 80% 30.35 in 10.0 mi NE 5.8 mph - N/A   Scattered Clouds
10:56 AM 48.9 °F - 36.0 °F 61% 30.35 in 10.0 mi ENE 8.1 mph - N/A   Scattered Clouds
11:56 AM 51.1 °F - 32.0 °F 48% 30.33 in 10.0 mi Calm Calm - N/A   Scattered Clouds
12:56 PM 55.0 °F - 30.9 °F 40% 30.30 in 10.0 mi Variable 3.5 mph - N/A   Scattered Clouds
1:56 PM 55.0 °F - 28.0 °F 35% 30.27 in 10.0 mi NNE 4.6 mph - N/A   Scattered Clouds
2:56 PM 55.9 °F - 30.0 °F 37% 30.26 in 10.0 mi Variable 3.5 mph - N/A   Scattered Clouds
3:56 PM 55.9 °F - 32.0 °F 40% 30.27 in 10.0 mi West 5.8 mph - N/A   Scattered Clouds
4:56 PM 52.0 °F - 32.0 °F 47% 30.27 in 10.0 mi WNW 4.6 mph - N/A   Scattered Clouds
5:56 PM 48.9 °F - 34.0 °F 56% 30.28 in 10.0 mi West 3.5 mph - N/A   Scattered Clouds
6:56 PM 48.9 °F - 35.1 °F 59% 30.30 in 10.0 mi West 3.5 mph - N/A   Partly Cloudy
7:56 PM 45.0 °F - 35.1 °F 68% 30.32 in 10.0 mi Calm Calm - N/A   Partly Cloudy
8:56 PM 42.1 °F - 37.0 °F 82% 30.32 in 10.0 mi Calm Calm - N/A   Partly Cloudy
9:56 PM 39.9 °F - 37.0 °F 89% 30.33 in 10.0 mi Calm Calm - N/A   Partly Cloudy
10:56 PM 41.0 °F - 36.0 °F 82% 30.33 in 10.0 mi Calm Calm - N/A   Scattered Clouds
11:56 PM 36.0 °F - 34.7 °F 95% 30.33 in 10.0 mi Calm Calm - N/A   Scattered Clouds